Location: ????????
(55.6333°N, 37.7000°E)
Time: 07:15:56
(UTC+00:00)

Spot 1 - Pass Details

Date: 19 May 2025
Orbit: 569 x 752 km, 98.7° (Epoch: 23 June)

Event Time Altitude Azimuth Distance (km) Brightness Sun altitude
Rises 21:38:54 0° 14° (NNE) 2,843 9.2 -14.3°
Reaches altitude 10° 21:41:02 10° 11° (N) 1,958 8.0 -14.3°
Maximum altitude 21:45:13 60° 292° (WNW) 716 4.4 -14.3°
Enters shadow 21:48:18 19° 216° (SW) 1,534 5.6 -14.2°
